When you browse on this site, cookies collect data to enhance your experience and personalize the content and advertising you see.
Visit our Privacy Policy to learn more. By continuing to use the site, you agree to this use of cookies and data.
  • In Österreich
  • Länderverzeichnis
  • Für 7 Tage
  • Wassertemperatur
  • Wetterkarte
  • News
  • Widgets
  • user-avatar
    Anmelden

    Stündliche Wetter Paralia

    Heute, 21 Januar, Dienstag

    Zeit Temperatur Niederschläge Wind Luftdruck Luftfeuchtigkeit
    00:00 +4°C° 0 mm 4 m/S 765 mmHg 80%
    01:00 +4°C° 0 mm 4 m/S 765 mmHg 81%
    02:00 +3°C° 0 mm 4 m/S 765 mmHg 81%
    03:00 +3°C° 0 mm 4 m/S 765 mmHg 81%
    04:00 +3°C° 0 mm 4 m/S 765 mmHg 80%
    05:00 +3°C° 0 mm 4 m/S 765 mmHg 79%
    06:00 +1°C° 0 mm 4 m/S 765 mmHg 78%
    07:00 +1°C° 0 mm 4 m/S 765 mmHg 77%
    08:00 +4°C° 0 mm 4 m/S 765 mmHg 67%
    09:00 +6°C° 0 mm 4 m/S 765 mmHg 58%
    10:00 +10°C° 0 mm 3 m/S 765 mmHg 49%
    11:00 +10°C° 0 mm 3 m/S 765 mmHg 47%
    12:00 +11°C° 0 mm 3 m/S 764 mmHg 45%
    13:00 +12°C° 0 mm 3 m/S 764 mmHg 44%
    14:00 +11°C° 0 mm 3 m/S 764 mmHg 49%
    15:00 +10°C° 0 mm 3 m/S 763 mmHg 54%
    16:00 +9°C° 0 mm 3 m/S 763 mmHg 59%
    17:00 +8°C° 0 mm 3 m/S 763 mmHg 58%
    18:00 +5°C° 0 mm 3 m/S 763 mmHg 58%
    19:00 +4°C° 0 mm 3 m/S 763 mmHg 58%
    20:00 +4°C° 0 mm 3 m/S 763 mmHg 53%
    21:00 +4°C° 0 mm 3 m/S 762 mmHg 49%
    22:00 +4°C° 0 mm 3 m/S 762 mmHg 45%
    23:00 +5°C° 0 mm 2 m/S 762 mmHg 43%

    Morgen, 22 Januar, Mittwoch

    Zeit Temperatur Niederschläge Wind Luftdruck Luftfeuchtigkeit
    00:00 +5°C° 0 mm 2 m/S 762 mmHg 41%
    01:00 +5°C° 0 mm 2 m/S 761 mmHg 38%
    02:00 +5°C° 0 mm 2 m/S 761 mmHg 37%
    03:00 +5°C° 0 mm 2 m/S 761 mmHg 36%
    04:00 +6°C° 0 mm 1 m/S 760 mmHg 35%
    05:00 +6°C° 0 mm 1 m/S 760 mmHg 35%
    06:00 +6°C° 0 mm 1 m/S 760 mmHg 34%
    07:00 +6°C° 0 mm 1 m/S 760 mmHg 34%
    08:00 +8°C° 0 mm 1 m/S 760 mmHg 33%
    09:00 +10°C° 0 mm 1 m/S 760 mmHg 32%
    10:00 +13°C° 0 mm 1 m/S 760 mmHg 31%
    11:00 +13°C° 0 mm 1 m/S 759 mmHg 31%
    12:00 +14°C° 0 mm 1 m/S 759 mmHg 32%
    13:00 +15°C° 0 mm 2 m/S 758 mmHg 33%
    14:00 +13°C° 0 mm 2 m/S 758 mmHg 40%
    15:00 +12°C° 0 mm 1 m/S 757 mmHg 47%
    16:00 +11°C° 0 mm 1 m/S 757 mmHg 55%
    17:00 +10°C° 0 mm 1 m/S 756 mmHg 54%
    18:00 +9°C° 0 mm 1 m/S 756 mmHg 53%
    19:00 +8°C° 0 mm 1 m/S 756 mmHg 52%
    20:00 +8°C° 0 mm 1 m/S 756 mmHg 51%
    21:00 +7°C° 0 mm 1 m/S 756 mmHg 50%
    22:00 +7°C° 0 mm 1 m/S 755 mmHg 49%
    23:00 +7°C° 0 mm 1 m/S 755 mmHg 49%

    übermorgen, 23 Januar, Donnerstag

    Zeit Temperatur Niederschläge Wind Luftdruck Luftfeuchtigkeit
    00:00 +7°C° 0 mm 1 m/S 755 mmHg 50%
    01:00 +7°C° 0 mm 1 m/S 755 mmHg 51%
    02:00 +7°C° 0 mm 1 m/S 754 mmHg 53%
    03:00 +7°C° 0 mm 1 m/S 754 mmHg 56%
    04:00 +6°C° 0 mm 2 m/S 754 mmHg 58%
    05:00 +6°C° 0 mm 2 m/S 754 mmHg 59%
    06:00 +7°C° 0 mm 1 m/S 754 mmHg 61%
    07:00 +7°C° 0 mm 1 m/S 754 mmHg 63%
    08:00 +9°C° 0 mm 1 m/S 754 mmHg 57%
    09:00 +12°C° 0 mm 1 m/S 754 mmHg 50%
    10:00 +14°C° 0 mm 1 m/S 754 mmHg 44%
    11:00 +15°C° 0 mm 1 m/S 754 mmHg 43%
    12:00 +16°C° 0 mm 1 m/S 754 mmHg 42%
    13:00 +18°C° 0 mm 1 m/S 754 mmHg 41%
    14:00 +15°C° 0 mm 1 m/S 755 mmHg 47%
    15:00 +14°C° 0 mm 2 m/S 755 mmHg 53%
    16:00 +13°C° 0 mm 2 m/S 755 mmHg 58%
    17:00 +11°C° 0 mm 3 m/S 756 mmHg 63%
    18:00 +8°C° 0 mm 4 m/S 756 mmHg 68%
    19:00 +7°C° 0 mm 4 m/S 757 mmHg 73%
    20:00 +6°C° 0 mm 4 m/S 757 mmHg 74%
    21:00 +6°C° 0 mm 4 m/S 758 mmHg 76%
    22:00 +6°C° 0 mm 4 m/S 758 mmHg 77%
    23:00 +6°C° 0 mm 4 m/S 758 mmHg 77%

    24 Januar, Freitag

    Zeit Temperatur Niederschläge Wind Luftdruck Luftfeuchtigkeit
    00:00 +5°C° 0 mm 4 m/S 759 mmHg 78%
    01:00 +5°C° 0 mm 4 m/S 759 mmHg 78%
    02:00 +5°C° 0 mm 4 m/S 759 mmHg 78%
    03:00 +5°C° 0 mm 4 m/S 759 mmHg 77%
    04:00 +5°C° 0 mm 4 m/S 759 mmHg 77%
    05:00 +5°C° 0 mm 4 m/S 759 mmHg 76%
    06:00 +5°C° 0 mm 4 m/S 760 mmHg 76%
    07:00 +5°C° 0 mm 4 m/S 760 mmHg 75%
    08:00 +7°C° 0 mm 4 m/S 760 mmHg 71%
    09:00 +9°C° 0 mm 3 m/S 760 mmHg 66%
    10:00 +11°C° 0 mm 3 m/S 761 mmHg 62%
    11:00 +11°C° 0 mm 3 m/S 760 mmHg 62%
    12:00 +12°C° 0 mm 3 m/S 760 mmHg 62%
    13:00 +12°C° 0 mm 3 m/S 759 mmHg 63%
    14:00 +13°C° 0 mm 2 m/S 759 mmHg 66%
    15:00 +12°C° 0 mm 2 m/S 759 mmHg 70%
    16:00 +12°C° 0 mm 1 m/S 759 mmHg 74%
    17:00 +11°C° 0 mm 1 m/S 759 mmHg 78%
    18:00 +10°C° 0 mm 1 m/S 759 mmHg 82%
    19:00 +9°C° 0 mm 1 m/S 759 mmHg 85%
    20:00 +8°C° 0 mm 1 m/S 759 mmHg 86%
    21:00 +8°C° 0 mm 1 m/S 759 mmHg 87%
    22:00 +8°C° 0 mm 1 m/S 759 mmHg 87%
    23:00 +8°C° 0 mm 1 m/S 759 mmHg 87%

    25 Januar, Samstag

    Zeit Temperatur Niederschläge Wind Luftdruck Luftfeuchtigkeit
    00:00 +8°C° 0 mm 1 m/S 759 mmHg 86%
    01:00 +8°C° 0 mm 1 m/S 759 mmHg 85%
    02:00 +8°C° 0 mm 1 m/S 759 mmHg 85%
    03:00 +8°C° 0 mm 1 m/S 758 mmHg 86%
    04:00 +8°C° 0 mm 1 m/S 758 mmHg 86%
    05:00 +7°C° 0 mm 1 m/S 758 mmHg 86%
    06:00 +7°C° 0 mm 1 m/S 758 mmHg 87%
    07:00 +7°C° 0 mm 1 m/S 758 mmHg 87%
    08:00 +9°C° 0 mm 1 m/S 758 mmHg 80%
    09:00 +12°C° 0 mm 1 m/S 759 mmHg 74%
    10:00 +14°C° 0 mm 1 m/S 759 mmHg 67%
    11:00 +14°C° 0 mm 1 m/S 758 mmHg 66%
    12:00 +15°C° 0 mm 1 m/S 758 mmHg 64%
    13:00 +15°C° 0 mm 2 m/S 757 mmHg 63%
    14:00 +15°C° 0 mm 2 m/S 757 mmHg 68%
    15:00 +14°C° 0 mm 1 m/S 757 mmHg 73%
    16:00 +13°C° 0 mm 1 m/S 757 mmHg 78%
    17:00 +12°C° 0 mm 1 m/S 757 mmHg 82%
    18:00 +11°C° 0 mm 1 m/S 757 mmHg 85%
    19:00 +10°C° 0 mm 1 m/S 757 mmHg 89%
    20:00 +10°C° 0 mm 1 m/S 757 mmHg 88%
    21:00 +10°C° 0 mm 1 m/S 757 mmHg 87%
    22:00 +10°C° 0 mm 1 m/S 757 mmHg 87%
    23:00 +10°C° 0 mm 1 m/S 757 mmHg 84%

    26 Januar, Sonntag

    Zeit Temperatur Niederschläge Wind Luftdruck Luftfeuchtigkeit
    00:00 +10°C° 0 mm 1 m/S 756 mmHg 81%
    01:00 +10°C° 0 mm 1 m/S 756 mmHg 77%
    02:00 +10°C° 0 mm 1 m/S 756 mmHg 78%
    03:00 +10°C° 0 mm 1 m/S 756 mmHg 78%
    04:00 +8°C° 0 mm 2 m/S 756 mmHg 79%
    05:00 +8°C° 0 mm 2 m/S 756 mmHg 75%
    06:00 +9°C° 0 mm 1 m/S 757 mmHg 72%
    07:00 +9°C° 0 mm 1 m/S 757 mmHg 68%
    08:00 +11°C° 0 mm 1 m/S 757 mmHg 65%
    09:00 +13°C° 0 mm 1 m/S 757 mmHg 61%
    10:00 +15°C° 0 mm 1 m/S 757 mmHg 57%
    11:00 +16°C° 0 mm 1 m/S 757 mmHg 59%
    12:00 +16°C° 0 mm 2 m/S 756 mmHg 61%
    13:00 +17°C° 0 mm 2 m/S 756 mmHg 63%
    14:00 +16°C° 0 mm 2 m/S 756 mmHg 69%
    15:00 +15°C° 0 mm 1 m/S 756 mmHg 75%
    16:00 +14°C° 0 mm 1 m/S 756 mmHg 81%
    17:00 +14°C° 0 mm 1 m/S 756 mmHg 84%
    18:00 +13°C° 0 mm 1 m/S 756 mmHg 87%
    19:00 +12°C° 0 mm 1 m/S 756 mmHg 90%
    20:00 +12°C° 0 mm 1 m/S 756 mmHg 90%
    21:00 +12°C° 0 mm 1 m/S 756 mmHg 90%
    22:00 +12°C° 0 mm 1 m/S 756 mmHg 89%
    23:00 +12°C° 0 mm 1 m/S 756 mmHg 89%
    Mehr zeigen